Content
SEND FEEDBACK

Daily
Averages
Monthly
Summary
United States of America

EL PASO, TEXAS


Home > North America > United States > Texas
Elevation: 3918 feet     Latitude: 31 48N     Longitude: 106 24W

WEATHER
 
SELECT A DAY
Number of Records: 172,156;   Date Range: 1/1/95 - 9/3/14
 
SHARE

PRINT THIS DATA

[ ← Previous Day ]
WEATHER ALMANAC - SEPTEMBER 2, 2013
[ Next Day → ]
[ °C ]   °F
Weather ElementAverageHighLow
Temperature84.5 °F93.9 °F (2:51 pm)73.9 °F (5:51 am)
Dewpoint53 °F57 °F (8:51 am)48 °F (1:51 am)
Humidity34.7 %45 % (5:51 am)22 % (4:51 pm)
Barometer29.85 in30.06 in (8:34 pm)29.75 in (4:51 pm)
Wind Speed9.8 mph24.2 mph (6:26 pm)
Wind Gust28.8 mph (6:26 pm)
Weather ElementAverage
Visibility10 mi
Wind DirectionESE (116.4 °)

Weather ElementTotal
Precipitation---
Cooling Degree Days18.9 (Base 65)
Growing Degree Days33.9 (Base 50)
Averaged from 25 records on September 2, 2013
WEATHER CONDITIONS BREAKOUT
WIND DIRECTION BREAKOUT
WEATHER BY HOUR - SEPTEMBER 2, 2013
[ °C ]   °F
Local TimeTemperatureDewpointHumidityBarometerVisibilityWind DirectionWind SpeedGust SpeedPrecipitationEventsConditions
1:51 AM80.1 °F48.0 °F32 %29.80 in10.0 miNE (50°)5.8 mphClear
2:51 AM80.1 °F48.9 °F34 %29.80 in10.0 miENE (70°)3.5 mphClear
3:51 AM78.1 °F51.1 °F39 %29.81 in10.0 miNorth (350°)4.6 mphClear
4:51 AM77.0 °F50.0 °F39 %29.82 in10.0 miNNE (20°)6.9 mphClear
5:51 AM73.9 °F51.1 °F45 %29.85 in10.0 miNNW (340°)8.1 mphClear
6:51 AM73.9 °F51.1 °F45 %29.86 in10.0 miNorth (10°)6.9 mphPartly Cloudy
7:51 AM75.9 °F53.1 °F45 %29.88 in10.0 miNNW (340°)9.2 mphScattered Clouds
8:51 AM81.0 °F57.0 °F44 %29.88 in10.0 miNNE (30°)12.7 mphPartly Cloudy
9:51 AM82.9 °F57.0 °F41 %29.90 in10.0 miNE (40°)6.9 mphClear
10:51 AM87.1 °F55.0 °F33 %29.90 in10.0 miEast (80°)9.2 mphPartly Cloudy
11:51 AM90.0 °F54.0 °F29 %29.87 in10.0 miSE (140°)10.4 mph18.4 mphPartly Cloudy
12:51 PM91.9 °F53.1 °F27 %29.85 in10.0 miSE (140°)12.7 mph23.0 mphPartly Cloudy
1:51 PM93.0 °F52.0 °F25 %29.83 in10.0 miSE (130°)5.8 mph16.1 mphPartly Cloudy
2:51 PM93.9 °F51.1 °F23 %29.79 in10.0 miENE (70°)11.5 mphScattered Clouds
3:51 PM93.9 °F51.1 °F23 %29.77 in10.0 miSE (130°)10.4 mphScattered Clouds
4:51 PM93.9 °F50.0 °F22 %29.75 in10.0 miESE (120°)9.2 mphScattered Clouds
5:51 PM93.9 °F51.1 °F23 %29.75 in10.0 miSE (130°)6.9 mphScattered Clouds
6:26 PM91.4 °F51.8 °F26 %30.00 in10.0 miNE (40°)24.2 mph28.8 mphMostly Cloudy
6:51 PM87.1 °F55.9 °F35 %29.78 in10.0 miNE (40°)20.7 mphMostly Cloudy
7:51 PM82.0 °F57.0 °F42 %29.82 in10.0 miENE (70°)17.3 mph25.3 mphThunderstormThunderstorm
8:34 PM82.4 °F55.4 °F39 %30.06 in10.0 miENE (70°)13.8 mph20.7 mphOvercast
8:51 PM82.9 °F55.9 °F39 %29.84 in10.0 miENE (70°)13.8 mphOvercast
9:51 PM82.9 °F55.0 °F38 %29.85 in10.0 miENE (60°)4.6 mph0.00 inRainLight Rain
10:51 PM82.9 °F54.0 °F37 %29.86 in10.0 miNorth (350°)4.6 mph0.00 inOvercast
11:51 PM80.1 °F55.0 °F42 %29.86 in10.0 miNNE (20°)4.6 mphMostly Cloudy
Hourly data recorded from KELP, located miles away from El Paso, Texas







STORIES FROM OUR PARTNERS